Location: Nashville
(36.1660°N, 86.7840°W)
Time: 02:44:56
(UTC-05:00)

Tiros 1 - Pass Details

Date: 01 February 2022
Orbit: 630 x 663 km, 48.4° (Epoch: 29 May)

Event Time Altitude Azimuth Distance (km) Brightness Sun altitude
Rises 19:49:29 0° 251° (WSW) 2,975 11.5 -31.6°
Reaches altitude 10° 19:51:54 10° 257° (WSW) 2,069 10.5 -32.1°
Enters shadow 19:54:48 32° 281° (W) 1,127 8.8 -32.7°
